Vorticity
5 12 11 -2 -2 -5 8 -4 8 11 31 27 3 -7 1 13 32 -16 29 10 6 13 15 10 14 10 5 -21 16 3 16 19 12 32 20 14 14 0 12 1 2 5 9 12 23 6 17 21 15 2 -20 -12 9 13
18 -2 18 4 1 2 10 6 -8 -8 3 1 4 11 -5 5 -2 23 -1 15 16 1 -18 -18 13 -6 -3 20 20 13 5 -2 -11 1 5 16 7 -4 4 0 5 25 1 -14 -11 1 -8 -11 -11 0 4 6 15 12
13 25 22 -8 5 -1 5 8 -1 1 -8 4 6 3 9 9 15 13 11 -7 -1 -8 24 37 39 19 -9 9 16 13 15 17 12 8 13 9 10 9 5 12 18 10 15 -4 11 20 17 19 -6 10 20 2 5 8
10 11 14 18 27 40 20 -11 0 7 4 3 -2 9 10 8 14 12 12 11 15 15 6 17 36 27 13 13 18 17 14 13 15 21 16 14 5 16 8 4 2 2 4 3 8 5 10 24 17 1 7 5 7 8
10 9 11 11 12 13 18 27 28 31 25 20 18 9 11 13 14 14 13 14 15 14 -13 -3 15 13 9 10 12 11 11 15 17 15 9 6 7 11 13 13 13 31 26 20 17 15 8 13 8 7 7 8 9 10
14 11 10 10 10 10 12 13 14 13 15 19 20 18 22 21 14 11 10 7 15 22 15 18 21 13 12 16 17 18 14 14 12 8 9 18 12 9 16 9 13 16 7 4 6 17 8 8 7 7 7 9 10 10
11 10 10 13 13 12 11 11 12 11 10 11 11 13 11 8 9 11 11 5 5 4 9 34 38 38 34 27 19 16 13 10 13 11 10 13 11 13 5 0 1 6 12 21 10 8 5 6 8 7 7 10 12 10
11 11 11 12 10 11 12 11 10 11 11 8 9 6 4 2 8 11 13 10 8 8 18 17 4 11 10 9 13 11 13 15 11 10 7 11 17 13 22 25 27 26 17 3 5 7 7 7 6 7 9 10 9 13
13 12 14 14 12 13 13 12 12 10 10 10 11 8 12 12 13 16 14 11 6 13 8 3 6 8 30 18 11 15 14 14 15 10 13 17 13 5 5 13 15 7 3 7 6 7 6 5 6 10 10 9 7 13
9 12 14 13 12 11 13 14 11 11 12 17 15 26 13 10 15 10 7 10 17 13 4 3 13 2 10 9 22 14 21 17 11 20 23 28 17 14 3 5 5 7 12 8 7 6 5 3 4 10 12 11 7 13
12 15 17 12 12 9 14 13 14 17 16 15 13 10 -1 13 19 11 13 14 16 14 20 19 20 10 11 7 14 8 11 11 12 23 5 12 16 25 20 18 20 10 7 8 4 3 4 6 11 14 13 11 8 12
18 16 16 12 8 17 15 17 22 21 19 15 20 16 -4 14 14 14 20 16 8 11 11 10 16 24 12 14 6 14 11 12 9 16 7 13 18 17 12 11 6 7 6 3 2 4 8 12 12 12 13 11 8 10
16 12 13 7 15 22 34 32 22 16 21 18 17 -3 20 12 12 7 15 3 8 3 9 17 18 16 21 15 9 11 10 12 14 11 11 7 13 13 13 7 8 4 2 2 5 11 16 14 11 12 15 13 9 6
18 14 13 41 34 18 12 8 10 10 11 11 -3 19 2 13 21 10 2 12 8 8 16 20 21 14 7 19 1 8 11 9 11 8 7 15 12 10 8 6 3 2 2 6 13 16 15 13 11 10 13 16 12 8
29 31 13 22 14 -10 15 -2 1 23 -10 6 5 19 11 13 6 11 17 17 15 19 15 19 13 4 14 -4 20 8 11 14 11 8 9 15 14 8 6 4 -1 -1 3 9 14 14 13 12 11 10 8 16 14 13
17 12 3 13 7 37 5 21 -30 -5 8 0 18 16 17 15 15 17 14 17 13 13 21 -2 15 13 11 6 16 7 10 11 9 14 13 12 8 7 4 -1 -1 1 7 14 14 12 13 12 9 12 11 5 12 19
-9 40 39 37 31 13 12 33 10 31 13 9 15 17 14 8 11 24 30 26 15 11 4 -4 10 8 13 15 13 11 5 7 7 8 9 8 6 4 3 3 5 11 13 17 12 11 11 14 9 10 12 12 2 15
18 47 30 19 -14 -1 13 11 9 10 20 19 15 14 20 19 14 9 9 7 7 6 5 0 0 6 -1 10 9 6 8 5 2 1 0 4 9 12 14 16 17 17 18 14 10 11 13 15 7 13 12 10 13 2
16 8 7 12 12 17 9 23 11 15 23 16 21 11 9 7 7 6 7 8 5 6 11 17 10 18 19 10 8 6 6 7 10 12 13 13 14 19 21 23 21 24 17 11 11 12 16 9 12 12 11 11 10 14
20 15 14 16 13 17 -2 34 29 11 19 10 6 5 7 7 7 8 11 13 13 12 13 11 12 10 10 11 9 11 12 12 14 15 15 19 22 18 16 24 21 14 10 12 12 15 15 10 11 12 12 12 13 10
12 13 15 14 9 6 34 2 21 20 6 6 5 7 10 11 10 8 8 8 9 9 12 12 12 14 13 14 11 11 14 14 14 14 14 18 19 17 15 14 12 12 12 12 12 13 12 9 13 12 13 13 12 12
17 17 14 22 20 10 19 21 18 4 12 13 9 7 5 5 9 14 14 13 12 10 13 15 13 11 11 11 12 13 12 11 11 12 13 13 13 14 13 12 13 13 13 13 14 17 15 11 12 13 14 13 13 12
14 6 16 15 -4 9 13 11 10 10 9 10 8 10 11 10 11 12 14 10 9 9 10 12 11 10 10 7 9 12 11 10 11 13 13 12 12 12 12 12 13 13 13 13 15 15 15 12 13 14 14 14 14 14
9 11 -9 -11 24 33 11 15 11 10 10 8 12 12 13 11 11 9 11 7 15 18 16 18 17 14 12 13 17 13 12 12 13 13 13 12 12 13 14 14 14 14 15 17 15 10 11 12 11 9 10 11 11 11
-9 8 35 8 -8 16 4 5 7 9 11 11 12 11 12 11 10 13 20 8 14 17 19 18 13 9 9 12 15 13 12 13 13 13 13 13 14 14 14 14 15 17 15 12 13 10 11 10 11 11 13 12 12 12
7 6 20 23 -2 1 5 1 4 5 10 12 12 12 11 13 20 14 10 5 10 8 4 4 7 10 17 21 13 13 13 13 13 13 14 14 15 15 15 16 13 13 11 10 8 12 13 14 15 15 15 15 15 15
17 24 14 9 11 6 6 6 7 9 9 7 9 17 14 14 15 4 4 10 8 7 14 14 16 20 8 17 17 12 12 13 14 14 15 15 15 15 14 13 13 10 8 8 10 12 14 15 15 15 15 15 14 14
31 10 9 4 6 6 2 11 11 8 8 3 12 11 19 9 0 6 9 10 11 13 14 12 11 15 18 10 16 12 11 13 15 14 15 13 12 12 12 12 11 8 7 7 8 7 7 7 6 6 6 5 6 6
12 5 6 2 4 6 10 10 9 8 4 9 10 13 6 9 9 9 8 10 15 14 12 11 11 12 12 16 13 14 11 13 15 15 12 10 11 13 12 11 10 9 8 8 9 9 9 9 7 7 7 7 7 8
9 5 6 3 9 11 8 7 7 7 7 9 11 13 13 11 8 9 11 14 17 12 10 13 17 18 14 13 14 14 13 14 15 13 10 11 12 14 14 13 12 12 12 12 12 12 12 12 12 12 12 11 11 11
6 6 7 9 8 7 7 8 8 7 8 11 11 12 10 10 11 13 16 20 17 11 12 13 15 17 17 16 15 15 13 13 16 11 10 9 8 8 8 9 10 12 12 12 10 9 8 8 8 8 8 8 8 9
10 12 13 12 7 5 11 9 6 10 9 13 12 14 16 17 19 20 22 19 11 12 11 11 13 16 17 17 18 17 15 15 15 10 9 9 8 8 8 8 8 7 7 7 7 7 6 5 6 7 8 8 8 9
14 12 6 4 8 14 8 8 10 9 11 16 26 27 26 23 22 21 18 14 11 10 10 9 10 12 13 14 15 18 18 16 15 12 10 10 8 8 7 6 5 6 6 7 7 8 8 8 8 8 8 7 7 8
Height
3057 3062 3066 3070 3073 3077 3081 3085 3087 3090 3092 3094 3094 3097 3098 3102 3102 3104 3103 3103 3101 3098 3098 3098 3097 3098 3097 3096 3095 3092 3091 3085 3082 3080 3078 3082 3079 3075 3072 3072 3072 3073 3072 3071 3071 3069 3064 3058 3058 3060 3056 3051 3048 3043
3045 3051 3056 3059 3064 3068 3071 3075 3079 3082 3084 3086 3087 3088 3092 3093 3095 3096 3095 3093 3091 3091 3091 3091 3091 3091 3090 3088 3084 3081 3084 3082 3079 3075 3074 3070 3073 3071 3070 3070 3070 3070 3068 3066 3068 3061 3057 3056 3053 3051 3047 3043 3041 3037
3034 3038 3044 3049 3054 3058 3061 3065 3069 3072 3077 3077 3078 3079 3082 3083 3085 3088 3090 3087 3084 3082 3083 3082 3082 3082 3080 3078 3079 3077 3071 3073 3073 3073 3069 3067 3067 3066 3066 3063 3063 3063 3063 3061 3059 3056 3054 3052 3048 3045 3041 3037 3035 3030
3023 3027 3033 3037 3040 3045 3050 3054 3057 3061 3065 3066 3068 3069 3072 3073 3076 3078 3079 3078 3077 3076 3074 3074 3074 3071 3071 3071 3071 3069 3067 3066 3066 3063 3065 3062 3063 3060 3058 3058 3058 3058 3057 3055 3052 3051 3049 3048 3043 3039 3038 3033 3028 3022
3013 3017 3022 3026 3031 3035 3038 3042 3045 3050 3052 3056 3058 3060 3060 3064 3067 3067 3067 3066 3066 3069 3067 3065 3066 3063 3060 3061 3061 3060 3059 3059 3060 3059 3057 3058 3057 3057 3052 3050 3049 3049 3048 3049 3046 3044 3043 3042 3039 3035 3032 3026 3022 3014
3004 3009 3012 3018 3022 3025 3028 3032 3035 3040 3042 3045 3049 3050 3051 3054 3056 3059 3057 3058 3059 3058 3059 3057 3056 3056 3051 3051 3054 3055 3052 3051 3053 3054 3053 3052 3051 3052 3047 3043 3043 3043 3043 3042 3042 3039 3038 3036 3035 3030 3025 3019 3014 3006
2994 2998 3004 3009 3014 3016 3019 3023 3027 3030 3033 3037 3039 3040 3046 3047 3049 3049 3051 3051 3055 3053 3051 3052 3048 3048 3046 3045 3047 3047 3046 3045 3048 3051 3047 3046 3046 3045 3040 3039 3039 3039 3037 3037 3036 3035 3034 3031 3029 3023 3017 3011 3006 3000
2983 2990 2995 3000 3003 3007 3010 3014 3017 3020 3025 3027 3031 3034 3039 3042 3041 3043 3044 3043 3046 3047 3045 3044 3045 3045 3043 3041 3041 3041 3040 3042 3042 3045 3043 3042 3041 3038 3036 3033 3034 3033 3032 3032 3031 3031 3030 3027 3022 3017 3011 3004 2999 2993
2974 2981 2987 2990 2993 2997 3001 3005 3009 3013 3016 3020 3026 3029 3031 3031 3033 3035 3037 3036 3039 3043 3038 3037 3037 3039 3039 3038 3035 3035 3038 3039 3040 3039 3038 3039 3033 3032 3030 3030 3031 3030 3030 3030 3028 3026 3024 3020 3017 3011 3005 2999 2993 2987
2968 2973 2977 2981 2985 2988 2990 2996 2999 3003 3009 3017 3020 3021 3019 3024 3027 3032 3031 3032 3030 3031 3035 3033 3030 3029 3036 3033 3032 3035 3037 3037 3035 3034 3033 3030 3026 3027 3026 3028 3027 3027 3027 3026 3025 3023 3020 3017 3012 3007 3000 2995 2988 2982
2959 2962 2968 2974 2978 2979 2980 2984 2992 2999 3003 3006 3009 3015 3017 3020 3021 3023 3026 3026 3029 3027 3024 3024 3027 3025 3026 3028 3030 3035 3035 3032 3032 3030 3030 3025 3021 3021 3022 3023 3024 3024 3024 3023 3021 3018 3015 3011 3007 3002 2998 2993 2986 2979
2949 2955 2961 2966 2968 2971 2971 2979 2983 2990 2994 2999 3006 3011 3015 3019 3019 3021 3018 3018 3021 3022 3020 3017 3021 3022 3022 3024 3028 3032 3031 3031 3027 3027 3026 3021 3019 3019 3020 3021 3021 3021 3021 3019 3017 3013 3009 3004 3001 2996 2991 2987 2982 2975
2942 2945 2952 2959 2959 2964 2971 2974 2977 2981 2989 2998 3003 3005 3010 3014 3014 3012 3011 3012 3013 3011 3014 3015 3019 3020 3019 3023 3028 3028 3028 3026 3025 3024 3020 3017 3017 3017 3018 3019 3019 3019 3017 3015 3012 3008 3004 3000 2996 2993 2989 2984 2979 2973
2936 2940 2945 2948 2951 2959 2965 2969 2971 2977 2986 2990 2996 2998 3003 3007 3006 3005 3007 3006 3008 3008 3011 3014 3015 3018 3018 3022 3024 3024 3024 3023 3021 3018 3016 3015 3015 3016 3017 3017 3017 3016 3014 3011 3007 3003 3000 2997 2993 2990 2986 2981 2976 2971
2931 2935 2941 2948 2952 2956 2959 2962 2971 2974 2983 2986 2989 2993 2998 3001 3001 3002 3002 3004 3006 3007 3010 3012 3014 3017 3018 3020 3020 3020 3020 3017 3016 3014 3014 3014 3014 3014 3015 3014 3013 3011 3009 3006 3003 3000 2997 2994 2991 2987 2983 2978 2973 2969
2930 2935 2940 2945 2950 2954 2957 2963 2970 2976 2978 2982 2988 2992 2995 2996 2997 3000 3001 3003 3005 3006 3009 3012 3013 3015 3017 3017 3016 3016 3016 3013 3013 3012 3012 3012 3013 3012 3012 3011 3009 3007 3004 3002 2999 2996 2993 2991 2988 2985 2981 2977 2972 2968
2932 2936 2941 2945 2950 2955 2961 2967 2971 2974 2980 2984 2987 2990 2991 2995 2998 2999 3001 3003 3005 3007 3009 3010 3012 3013 3014 3013 3013 3012 3011 3011 3011 3011 3010 3010 3010 3009 3008 3006 3003 3001 2999 2996 2994 2992 2990 2988 2985 2982 2978 2975 2972 2968
2936 2941 2946 2951 2957 2961 2965 2969 2972 2976 2979 2982 2987 2989 2993 2996 2998 3000 3001 3003 3005 3006 3008 3010 3011 3010 3010 3009 3009 3010 3009 3009 3008 3008 3007 3006 3005 3003 3000 2998 2996 2994 2993 2991 2990 2989 2987 2985 2983 2980 2977 2974 2971 2968
2943 2946 2950 2954 2959 2962 2965 2969 2973 2975 2979 2984 2987 2991 2995 2997 2998 3000 3001 3003 3004 3006 3007 3007 3008 3006 3007 3007 3007 3006 3006 3005 3004 3003 3002 3000 2998 2995 2993 2991 2990 2988 2988 2987 2987 2986 2984 2982 2981 2978 2975 2973 2970 2968
2948 2951 2954 2956 2959 2962 2965 2970 2974 2977 2982 2986 2990 2993 2995 2997 2998 2999 3001 3002 3003 3004 3004 3004 3004 3004 3004 3004 3003 3003 3003 3002 3001 2999 2997 2995 2992 2990 2989 2987 2986 2986 2985 2985 2984 2983 2981 2980 2978 2976 2974 2972 2970 2968
2952 2954 2956 2958 2961 2964 2967 2971 2975 2981 2985 2988 2991 2993 2995 2996 2998 3000 3001 3001 3001 3002 3002 3002 3001 3001 3000 3000 3000 3000 3000 2999 2997 2995 2993 2991 2989 2988 2987 2986 2985 2984 2984 2983 2982 2981 2980 2978 2976 2974 2973 2971 2969 2967
2955 2958 2960 2963 2965 2967 2971 2976 2979 2983 2986 2989 2991 2994 2996 2997 2998 2998 2999 2999 2999 2999 2999 2998 2999 2999 2998 2998 2998 2998 2997 2995 2994 2992 2991 2989 2988 2987 2986 2985 2984 2983 2982 2981 2980 2979 2978 2977 2975 2973 2972 2970 2969 2967
2960 2963 2965 2967 2970 2973 2979 2980 2982 2984 2988 2991 2993 2994 2995 2996 2997 2998 2997 2997 2997 2997 2996 2996 2996 2996 2996 2996 2995 2994 2993 2992 2991 2990 2990 2989 2987 2986 2984 2983 2982 2982 2981 2980 2979 2978 2977 2975 2975 2973 2972 2970 2969 2967
2966 2968 2969 2971 2973 2977 2981 2983 2985 2988 2990 2992 2993 2994 2995 2995 2995 2995 2995 2995 2995 2994 2994 2993 2993 2993 2993 2992 2991 2991 2990 2990 2990 2989 2987 2986 2985 2983 2983 2982 2981 2981 2980 2979 2978 2977 2977 2976 2975 2974 2972 2971 2969 2968
2971 2972 2975 2976 2979 2982 2984 2987 2989 2990 2991 2992 2993 2993 2993 2993 2993 2993 2993 2994 2993 2993 2993 2992 2991 2991 2990 2989 2989 2989 2989 2988 2987 2986 2985 2983 2983 2982 2982 2981 2981 2980 2980 2979 2978 2978 2977 2976 2975 2974 2973 2971 2970 2969
2972 2975 2979 2980 2983 2986 2987 2989 2990 2991 2992 2992 2993 2992 2992 2992 2992 2992 2993 2993 2993 2992 2991 2990 2989 2988 2988 2987 2987 2986 2986 2985 2984 2983 2983 2982 2982 2982 2982 2982 2981 2981 2980 2980 2980 2979 2978 2977 2976 2975 2974 2972 2971 2970
2975 2977 2980 2982 2985 2987 2988 2990 2990 2991 2991 2992 2992 2991 2991 2991 2991 2992 2992 2991 2990 2989 2988 2988 2987 2986 2986 2985 2984 2983 2983 2983 2982 2982 2982 2981 2981 2982 2982 2982 2982 2982 2981 2981 2981 2981 2980 2979 2978 2976 2975 2974 2973 2971
2978 2980 2983 2986 2987 2988 2989 2989 2990 2990 2991 2991 2991 2990 2990 2990 2991 2990 2989 2988 2987 2986 2986 2985 2984 2983 2982 2982 2981 2981 2981 2980 2980 2981 2981 2982 2982 2982 2982 2982 2982 2982 2982 2982 2982 2982 2981 2981 2979 2978 2977 2976 2975 2973
2981 2982 2985 2985 2987 2987 2988 2989 2989 2990 2990 2990 2989 2988 2988 2987 2987 2986 2986 2985 2984 2983 2982 2982 2981 2980 2980 2979 2979 2979 2979 2979 2979 2980 2980 2981 2982 2982 2982 2982 2982 2982 2982 2982 2982 2982 2982 2981 2980 2979 2978 2977 2976 2975
2982 2983 2984 2985 2986 2987 2988 2988 2988 2988 2987 2987 2986 2985 2985 2984 2983 2982 2981 2980 2980 2980 2980 2979 2978 2977 2977 2977 2977 2977 2977 2978 2978 2979 2980 2980 2981 2981 2981 2981 2981 2981 2981 2981 2981 2981 2981 2980 2980 2979 2978 2977 2976 2975
2981 2982 2984 2984 2985 2986 2986 2986 2986 2985 2985 2983 2982 2981 2980 2979 2978 2977 2976 2976 2976 2977 2976 2976 2975 2975 2974 2974 2974 2975 2975 2976 2977 2978 2979 2979 2980 2980 2980 2981 2981 2981 2981 2981 2980 2980 2980 2979 2979 2978 2977 2976 2975 2974
2980 2981 2982 2983 2984 2984 2984 2984 2983 2982 2981 2979 2978 2976 2975 2973 2973 2973 2972 2973 2973 2974 2974 2974 2973 2973 2973 2972 2972 2973 2973 2974 2975 2976 2977 2978 2978 2979 2979 2979 2980 2980 2980 2979 2979 2979 2978 2977 2977 2976 2975 2974 2973 2972
2978 2980 2980 2981 2981 2981 2981 2981 2979 2978 2977 2975 2973 2971 2970 2969 2969 2970 2970 2970 2971 2972 2972 2972 2972 2972 2972 2971 2971 2971 2971 2972 2972 2973 2974 2975 2976 2976 2977 2977 2977 2977 2977 2977 2976 2976 2975 2974 2974 2973 2972 2971 2970 2968